Radiation Dose at Monitoring Post of Fukushima Daini Nuclear Power Station
Date,Time,MP-1(microSv/h),MP-2(microSv/h),MP-3(microSv/h),MP-4(microSv/h),MP-5(microSv/h),MP-6(microSv/h),MP-7(microSv/h),Wind Direction,Wind Velocity(m/s),Rain
2015/10/20,00:00,0.511,0.289,0.527,0.481,0.455,0.235,0.209,south-southwest,2.0,No
2015/10/20,00:10,0.509,0.289,0.524,0.480,0.451,0.236,0.208,south-southwest,1.7,No
2015/10/20,00:20,0.510,0.288,0.526,0.481,0.456,0.237,0.207,south-southwest,1.6,No
2015/10/20,00:30,0.509,0.287,0.524,0.480,0.452,0.237,0.208,south-southwest,2.2,No
2015/10/20,00:40,0.510,0.287,0.528,0.483,0.457,0.235,0.207,south-southwest,2.6,No
2015/10/20,00:50,0.510,0.289,0.523,0.482,0.452,0.237,0.208,south-southwest,1.9,No
2015/10/20,01:00,0.511,0.287,0.530,0.482,0.456,0.237,0.208,south-southwest,2.9,No
2015/10/20,01:10,0.508,0.288,0.522,0.482,0.451,0.238,0.209,south-southwest,2.8,No
2015/10/20,01:20,0.512,0.287,0.528,0.482,0.455,0.237,0.207,south-southwest,2.7,No
2015/10/20,01:30,0.507,0.287,0.524,0.481,0.450,0.237,0.209,south,3.3,No
2015/10/20,01:40,0.512,0.287,0.526,0.482,0.456,0.236,0.208,south,3.3,No
2015/10/20,01:50,0.508,0.288,0.523,0.481,0.453,0.237,0.207,south,3.3,No
2015/10/20,02:00,0.510,0.288,0.529,0.482,0.457,0.236,0.208,south,3.1,No
2015/10/20,02:10,0.508,0.289,0.522,0.483,0.453,0.237,0.209,south-southwest,2.7,No
2015/10/20,02:20,0.510,0.287,0.528,0.481,0.456,0.236,0.208,south-southwest,3.0,No
2015/10/20,02:30,0.509,0.288,0.524,0.483,0.451,0.237,0.207,south-southwest,2.5,No
2015/10/20,02:40,0.511,0.288,0.528,0.480,0.455,0.238,0.207,southwest,3.1,No
2015/10/20,02:50,0.509,0.289,0.522,0.484,0.452,0.236,0.208,southwest,4.2,No
2015/10/20,03:00,0.511,0.288,0.527,0.481,0.455,0.236,0.207,southwest,4.9,No
2015/10/20,03:10,0.508,0.288,0.523,0.484,0.453,0.236,0.208,south-southwest,4.9,No
2015/10/20,03:20,0.508,0.288,0.526,0.480,0.455,0.237,0.208,south-southwest,4.1,No
2015/10/20,03:30,0.511,0.287,0.524,0.483,0.454,0.236,0.208,south-southwest,4.5,No
2015/10/20,03:40,0.509,0.289,0.526,0.480,0.454,0.237,0.209,south-southwest,3.0,No
2015/10/20,03:50,0.511,0.287,0.524,0.484,0.456,0.236,0.207,south-southwest,3.2,No
2015/10/20,04:00,0.509,0.289,0.527,0.480,0.452,0.237,0.209,southwest,4.0,No
2015/10/20,04:10,0.511,0.287,0.522,0.483,0.454,0.237,0.208,south-southwest,4.3,No
2015/10/20,04:20,0.507,0.289,0.525,0.482,0.452,0.236,0.208,south-southwest,4.4,No
2015/10/20,04:30,0.512,0.288,0.523,0.481,0.456,0.237,0.208,south-southwest,3.9,No
2015/10/20,04:40,0.508,0.287,0.527,0.481,0.451,0.236,0.208,southwest,3.3,No
2015/10/20,04:50,0.512,0.289,0.526,0.481,0.456,0.238,0.207,southwest,3.2,No
2015/10/20,05:00,0.508,0.287,0.526,0.484,0.452,0.237,0.207,south-southwest,3.6,No
2015/10/20,05:10,0.511,0.290,0.526,0.479,0.455,0.236,0.209,southwest,4.9,No
2015/10/20,05:20,0.506,0.287,0.524,0.483,0.452,0.237,0.208,south-southwest,5.8,No
2015/10/20,05:30,0.512,0.288,0.525,0.480,0.456,0.236,0.208,south-southwest,4.6,No
2015/10/20,05:40,0.510,0.287,0.524,0.484,0.454,0.237,0.208,south,4.6,No
2015/10/20,05:50,0.512,0.288,0.526,0.481,0.454,0.237,0.208,south,3.6,No
2015/10/20,06:00,0.509,0.287,0.523,0.484,0.452,0.237,0.207,south-southwest,3.3,No
2015/10/20,06:10,0.513,0.287,0.528,0.480,0.454,0.235,0.208,south,2.8,No
2015/10/20,06:20,0.509,0.288,0.524,0.482,0.455,0.237,0.207,south,2.8,No
2015/10/20,06:30,0.511,0.288,0.527,0.480,0.450,0.237,0.207,south-southwest,3.3,No
2015/10/20,06:40,0.510,0.289,0.524,0.482,0.454,0.236,0.206,west-southwest,3.7,No
2015/10/20,06:50,0.509,0.287,0.525,0.480,0.451,0.237,0.207,west-southwest,5.0,No
2015/10/20,07:00,0.510,0.288,0.524,0.481,0.455,0.237,0.208,west-southwest,2.8,No
2015/10/20,07:10,0.508,0.286,0.524,0.481,0.451,0.235,0.207,south-southwest,1.4,No
2015/10/20,07:20,0.508,0.287,0.524,0.482,0.456,0.237,0.208,south-southeast,1.3,No
2015/10/20,07:30,0.508,0.288,0.525,0.480,0.451,0.235,0.206,south-southwest,2.2,No
2015/10/20,07:40,0.507,0.287,0.522,0.481,0.453,0.236,0.208,south-southwest,3.3,No
2015/10/20,07:50,0.509,0.287,0.526,0.476,0.453,0.236,0.207,south-southwest,3.3,No
2015/10/20,08:00,0.509,0.288,0.522,0.483,0.453,0.236,0.206,south-southwest,2.5,No
2015/10/20,08:10,0.512,0.287,0.526,0.478,0.454,0.237,0.207,west-southwest,2.8,No
2015/10/20,08:20,0.505,0.288,0.521,0.481,0.449,0.236,0.207,west-southwest,2.2,No
2015/10/20,08:30,0.511,0.285,0.526,0.481,0.456,0.236,0.206,southwest,2.8,No
2015/10/20,08:40,0.506,0.289,0.521,0.480,0.452,0.236,0.209,southwest,2.7,No
2015/10/20,08:50,0.509,0.287,0.526,0.483,0.453,0.235,0.206,south,2.2,No
2015/10/20,09:00,0.510,0.287,0.524,0.477,0.456,0.236,0.207,south-southwest,3.5,No
2015/10/20,09:10,0.506,0.287,0.526,0.483,0.451,0.235,0.208,south-southwest,2.3,No
2015/10/20,09:20,0.512,0.285,0.524,0.482,0.456,0.236,0.207,south,1.1,No
2015/10/20,09:30,0.508,0.288,0.521,0.475,0.453,0.235,0.206,south,1.8,No
2015/10/20,09:40,0.506,0.289,0.526,0.476,0.449,0.236,0.208,south-southeast,2.3,No
2015/10/20,09:50,0.503,0.287,0.521,0.483,0.448,0.237,0.207,south-southeast,3.9,No
2015/10/20,10:00,0.501,0.286,0.526,0.480,0.458,0.238,0.206,south-southeast,4.2,No
2015/10/20,10:10,0.507,0.285,0.527,0.480,0.456,0.238,0.206,south-southeast,5.1,No
2015/10/20,10:20,0.512,0.287,0.520,0.477,0.451,0.238,0.206,south,4.5,No
2015/10/20,10:30,0.509,0.289,0.526,0.475,0.450,0.238,0.208,south,5.0,No
2015/10/20,10:40,0.504,0.287,0.520,0.484,0.457,0.238,0.209,south,4.2,No
2015/10/20,10:50,0.505,0.288,0.519,0.485,0.459,0.236,0.207,south,4.3,No
2015/10/20,11:00,0.512,0.288,0.525,0.483,0.452,0.237,0.206,south-southwest,5.6,No
2015/10/20,11:10,0.511,0.289,0.522,0.477,0.450,0.238,0.209,south,5.1,No
2015/10/20,11:20,0.507,0.288,0.517,0.484,0.458,0.237,0.208,south,4.3,No
2015/10/20,11:30,0.504,0.287,0.524,0.485,0.456,0.237,0.207,south,5.3,No
2015/10/20,11:40,0.508,0.290,0.526,0.482,0.452,0.237,0.208,south,4.7,No
2015/10/20,11:50,0.513,0.289,0.523,0.479,0.450,0.237,0.209,south-southwest,4.3,No
2015/10/20,12:00,0.510,0.288,0.520,0.476,0.457,0.237,0.208,south-southwest,5.8,No
2015/10/20,12:10,0.506,0.285,0.527,0.484,0.458,0.238,0.208,south-southwest,6.0,No
2015/10/20,12:20,0.511,0.288,0.526,0.482,0.455,0.238,0.205,south-southwest,3.5,No
2015/10/20,12:30,0.514,0.290,0.523,0.482,0.452,0.236,0.209,south-southwest,4.6,No
2015/10/20,12:40,0.510,0.290,0.519,0.480,0.449,0.238,0.209,south-southwest,4.9,No
2015/10/20,12:50,0.505,0.288,0.519,0.480,0.451,0.236,0.207,south,4.1,No
2015/10/20,13:00,0.511,0.287,0.518,0.480,0.451,0.238,0.207,south-southwest,3.9,No
2015/10/20,13:10,0.513,0.286,0.521,0.478,0.451,0.237,0.206,south,3.8,No
2015/10/20,13:20,0.510,0.285,0.525,0.478,0.455,0.237,0.207,south-southwest,2.3,No
2015/10/20,13:30,0.507,0.286,0.528,0.482,0.458,0.237,0.208,south,2.9,No
2015/10/20,13:40,0.513,0.291,0.525,0.488,0.456,0.238,0.207,southwest,2.2,No
2015/10/20,13:50,0.511,0.290,0.523,0.485,0.455,0.239,0.206,west-northwest,3.1,No
2015/10/20,14:00,0.508,0.289,0.523,0.482,0.451,0.238,0.208,west,2.5,No
2015/10/20,14:10,0.509,0.288,0.530,0.480,0.451,0.237,0.209,west-southwest,1.6,No
2015/10/20,14:20,0.514,0.287,0.528,0.484,0.453,0.238,0.206,west,1.3,No
2015/10/20,14:30,0.510,0.292,0.524,0.489,0.459,0.237,0.209,southwest,1.4,No
2015/10/20,14:40,0.508,0.291,0.524,0.484,0.458,0.237,0.207,south,1.6,No
2015/10/20,14:50,0.514,0.289,0.531,0.482,0.456,0.240,0.208,southwest,3.3,No
2015/10/20,15:00,0.511,0.290,0.527,0.488,0.453,0.238,0.209,west-southwest,3.1,No
2015/10/20,15:10,0.507,0.291,0.523,0.487,0.460,0.238,0.209,southwest,2.8,No
2015/10/20,15:20,0.515,0.290,0.530,0.482,0.459,0.238,0.208,southwest,3.6,No
2015/10/20,15:30,0.513,0.289,0.528,0.486,0.455,0.237,0.208,west-southwest,2.9,No
2015/10/20,15:40,0.508,0.291,0.524,0.486,0.459,0.239,0.209,west,3.0,No
2015/10/20,15:50,0.513,0.291,0.531,0.482,0.459,0.240,0.208,west-southwest,2.5,No
2015/10/20,16:00,0.512,0.291,0.533,0.488,0.454,0.238,0.209,west,3.4,No
2015/10/20,16:10,0.510,0.291,0.525,0.487,0.458,0.239,0.208,west-northwest,3.7,No
2015/10/20,16:20,0.516,0.289,0.533,0.483,0.460,0.238,0.209,west,3.6,No
2015/10/20,16:30,0.510,0.291,0.529,0.489,0.454,0.239,0.209,west,4.1,No
2015/10/20,16:40,0.513,0.289,0.526,0.483,0.463,0.238,0.207,west,3.6,No
2015/10/20,16:50,0.513,0.292,0.533,0.488,0.458,0.239,0.210,west,2.5,No
2015/10/20,17:00,0.510,0.290,0.528,0.486,0.457,0.237,0.208,northwest,3.1,No
2015/10/20,17:10,0.515,0.291,0.531,0.484,0.460,0.239,0.210,north-northwest,2.0,No
2015/10/20,17:20,0.510,0.290,0.528,0.488,0.456,0.237,0.208,north-northwest,2.2,No
2015/10/20,17:30,0.512,0.289,0.527,0.482,0.460,0.239,0.210,north,2.8,No
2015/10/20,17:40,0.513,0.291,0.531,0.489,0.456,0.239,0.208,northwest,3.0,No
2015/10/20,17:50,0.509,0.289,0.524,0.484,0.458,0.239,0.209,north-northwest,2.5,No
2015/10/20,18:00,0.515,0.292,0.529,0.489,0.459,0.239,0.209,north-northwest,2.9,No
2015/10/20,18:10,0.510,0.288,0.529,0.488,0.455,0.237,0.209,north,6.6,No
2015/10/20,18:20,0.513,0.290,0.525,0.485,0.459,0.238,0.210,north-northeast,9.2,No
2015/10/20,18:30,0.512,0.290,0.531,0.490,0.454,0.239,0.209,north-northeast,8.1,No
2015/10/20,18:40,0.509,0.289,0.525,0.484,0.461,0.238,0.208,north-northeast,6.8,No
2015/10/20,18:50,0.515,0.290,0.531,0.488,0.457,0.238,0.209,north,3.9,No
2015/10/20,19:00,0.508,0.289,0.526,0.486,0.458,0.238,0.209,north,3.4,Yes
2015/10/20,19:10,0.515,0.290,0.530,0.485,0.457,0.240,0.208,north,2.2,Yes
2015/10/20,19:20,0.512,0.289,0.528,0.487,0.455,0.238,0.210,north,2.1,Yes
2015/10/20,19:30,0.511,0.291,0.526,0.485,0.459,0.240,0.208,north-northeast,2.8,Yes
2015/10/20,19:40,0.512,0.289,0.531,0.489,0.455,0.238,0.210,north-northeast,3.3,No
2015/10/20,19:50,0.508,0.291,0.525,0.485,0.461,0.239,0.209,east,1.4,No
2015/10/20,20:00,0.514,0.290,0.533,0.488,0.455,0.239,0.209,north,1.1,No
2015/10/20,20:10,0.510,0.292,0.527,0.486,0.460,0.240,0.210,north,1.4,No
2015/10/20,20:20,0.517,0.289,0.531,0.487,0.457,0.238,0.209,north-northeast,2.8,No
2015/10/20,20:30,0.511,0.291,0.527,0.486,0.457,0.239,0.208,north-northeast,2.8,No
2015/10/20,20:40,0.513,0.290,0.530,0.486,0.455,0.239,0.208,north-northeast,2.7,No
2015/10/20,20:50,0.512,0.291,0.530,0.488,0.461,0.238,0.210,north,2.4,No
2015/10/20,21:00,0.514,0.290,0.529,0.486,0.456,0.238,0.209,north-northeast,2.4,No
2015/10/20,21:10,0.513,0.290,0.530,0.487,0.458,0.240,0.208,north-northeast,1.6,No
2015/10/20,21:20,0.510,0.291,0.528,0.485,0.457,0.238,0.210,north,2.8,No
2015/10/20,21:30,0.516,0.291,0.531,0.486,0.458,0.239,0.209,north,2.5,No
2015/10/20,21:40,0.511,0.290,0.526,0.485,0.457,0.238,0.210,north-northeast,2.3,No
2015/10/20,21:50,0.514,0.291,0.532,0.488,0.458,0.239,0.209,north-northeast,0.7,No
2015/10/20,22:00,0.510,0.289,0.526,0.485,0.456,0.238,0.210,north-northeast,1.6,No
2015/10/20,22:10,0.515,0.292,0.531,0.489,0.458,0.239,0.209,north,1.3,No
2015/10/20,22:20,0.511,0.292,0.527,0.486,0.455,0.238,0.208,west-northwest,1.8,No
2015/10/20,22:30,0.514,0.291,0.531,0.488,0.458,0.240,0.209,west-northwest,3.7,No
2015/10/20,22:40,0.510,0.290,0.527,0.484,0.453,0.238,0.209,north-northwest,1.9,No
2015/10/20,22:50,0.514,0.290,0.530,0.487,0.460,0.238,0.209,north-northwest,1.6,No
2015/10/20,23:00,0.510,0.289,0.526,0.485,0.456,0.238,0.209,north,3.5,No
2015/10/20,23:10,0.517,0.290,0.531,0.488,0.460,0.239,0.208,north-northwest,2.3,No
2015/10/20,23:20,0.509,0.290,0.525,0.485,0.455,0.239,0.209,north-northwest,4.3,No
2015/10/20,23:30,0.514,0.290,0.530,0.487,0.458,0.238,0.209,north-northwest,4.4,No
2015/10/20,23:40,0.510,0.291,0.528,0.483,0.455,0.238,0.209,north-northwest,4.3,No
2015/10/20,23:50,0.514,0.289,0.532,0.486,0.457,0.238,0.209,north-northwest,5.9,No
